Theta_e
326 326 325 324 323 323 323 322 320 319 318 317 316 316 315 313 311 309 309 309 308 308 308 308 309 311 305 291 292 301 321 321 314 307 300 299 297 297 293 294 294 293 294 294 295 294 295
326 325 324 324 323 323 323 322 320 319 317 317 315 315 314 312 310 309 308 308 307 307 307 307 309 311 300 287 299 303 305 309 304 303 302 303 301 300 294 292 291 294 292 292 293 294 294
326 325 324 323 323 322 322 321 320 319 318 317 316 315 313 312 309 308 308 307 307 306 306 307 308 307 298 291 303 304 304 301 300 303 298 301 300 295 294 291 293 291 288 290 293 294 293
323 324 325 323 322 321 320 320 320 320 318 317 316 314 313 311 309 308 307 307 306 305 307 307 308 305 292 303 304 304 305 304 304 301 299 300 298 296 294 295 293 289 287 285 290 291 292
322 323 324 323 322 321 320 319 319 319 318 317 316 314 312 310 308 307 306 306 305 307 309 308 304 299 290 305 301 306 306 300 300 299 299 300 298 294 293 289 287 286 283 282 286 292 290
320 322 322 322 322 321 320 320 319 318 318 316 315 313 311 309 307 306 305 305 305 306 306 307 305 293 294 294 300 298 307 301 297 297 296 294 293 290 288 288 280 282 282 283 284 289 291
319 320 321 322 321 322 322 321 319 318 317 316 315 313 310 308 305 303 301 296 292 291 299 292 291 290 294 301 302 297 299 297 296 294 290 289 287 285 288 289 288 286 284 284 287 290 288
318 318 320 320 320 321 322 322 319 317 316 316 314 312 309 307 305 303 300 293 292 294 287 293 296 296 299 301 294 297 298 292 292 287 289 287 284 288 287 287 286 285 283 283 286 288 287
316 317 318 319 320 320 320 321 319 317 316 315 313 311 308 305 302 299 296 294 299 296 285 286 291 291 292 297 292 292 294 291 290 286 287 285 287 289 287 285 284 284 283 282 282 285 286
312 313 316 317 318 319 319 320 319 317 315 314 311 309 305 302 295 297 295 298 300 299 282 284 287 292 293 293 289 294 294 292 288 286 287 285 287 285 284 282 284 279 285 284 282 280 277
311 311 312 314 316 317 317 317 318 317 314 312 309 307 304 301 295 295 296 298 301 297 273 288 289 296 294 290 290 289 293 291 285 285 286 283 283 283 282 283 284 283 285 284 284 281 281
311 311 311 312 314 315 315 315 316 315 313 310 308 306 302 298 296 298 298 300 299 283 272 284 287 286 286 287 286 288 289 291 289 285 285 284 288 286 285 286 286 287 285 284 284 281 274
310 309 310 311 311 314 315 315 315 314 311 309 307 304 300 298 293 299 300 296 281 276 286 281 282 285 283 282 283 284 283 282 281 279 279 282 283 287 288 284 286 284 281 275 274 274 273
309 309 309 310 311 311 314 315 314 311 309 307 305 302 300 299 298 299 299 287 275 282 281 284 283 283 280 282 281 283 281 279 284 282 278 276 275 284 286 284 281 281 280 275 269 272 275
308 309 309 310 310 311 313 314 311 309 307 305 302 296 296 297 299 299 291 278 278 281 283 281 282 279 278 281 281 281 280 279 283 283 277 276 276 285 285 285 284 280 278 283 277 278 274
307 308 308 309 310 310 311 312 310 307 305 302 293 293 291 298 300 296 285 280 281 284 284 283 279 280 277 278 278 279 279 283 282 285 285 281 275 283 284 286 286 283 286 278 279 271 270
306 307 308 309 309 309 311 310 307 305 302 300 293 286 295 299 298 289 279 280 282 286 286 282 280 278 279 278 279 279 279 282 284 285 287 284 280 278 283 281 279 281 280 281 281 279 275
306 306 307 308 308 309 310 307 305 303 301 298 292 283 295 298 286 285 281 285 287 285 287 285 285 282 280 281 279 279 279 281 286 286 281 284 281 276 278 284 287 284 282 282 276 276 279
305 306 307 307 308 309 308 306 304 301 301 295 287 287 294 294 279 281 285 285 286 284 285 284 283 284 283 281 277 280 281 286 287 285 283 285 280 273 276 282 286 282 284 284 284 282 277
305 306 307 310 310 308 306 304 302 301 303 294 287 281 287 290 286 284 283 283 282 287 285 285 283 284 282 280 282 279 281 284 286 286 289 288 281 276 273 276 280 278 281 283 282 278 279
305 306 310 310 308 306 304 302 301 302 301 294 288 283 287 280 282 284 285 284 281 280 285 285 282 283 281 278 279 279 281 282 283 286 286 285 277 279 280 281 281 281 280 280 276 281 279
308 309 309 307 306 304 303 302 302 302 300 293 284 284 287 285 285 284 285 282 282 282 283 281 281 283 282 280 280 278 281 281 281 284 284 286 279 279 275 282 282 277 279 279 277 279 277
307 306 305 304 303 303 302 301 302 301 298 290 290 290 287 286 284 283 282 283 283 284 284 285 284 283 281 283 286 286 287 287 286 284 284 283 280 278 276 280 279 276 277 277 277 279 279
302 302 302 301 301 301 301 301 301 301 297 292 290 290 285 280 283 283 284 284 283 283 281 285 286 284 287 290 290 288 287 286 286 286 287 283 281 281 278 279 272 278 282 280 277 277 279
301 301 301 301 300 300 300 301 301 301 299 292 291 289 285 280 284 284 284 284 285 285 283 283 286 288 290 289 284 281 281 282 283 285 286 285 283 278 278 276 276 278 279 279 278 275 278
299 300 300 300 299 300 300 301 301 302 299 292 290 291 288 284 282 287 283 285 282 281 282 284 288 290 289 285 282 276 276 278 280 283 288 287 285 280 279 274 272 277 278 282 282 274 278
299 300 300 301 301 301 302 302 302 300 299 293 290 290 289 283 285 286 283 283 284 283 281 283 285 285 287 281 279 279 278 283 277 276 278 280 281 278 279 276 275 277 279 283 275 275 277
300 300 301 301 301 301 301 301 300 299 298 293 289 290 289 284 286 289 288 284 283 283 280 282 283 283 283 280 280 279 278 280 280 280 278 277 275 276 278 275 273 278 281 278 278 279 277
300 300 300 301 301 301 301 301 301 299 298 294 289 291 291 287 286 289 289 290 288 287 285 285 283 283 284 282 282 282 279 281 278 276 282 277 277 275 275 274 278 279 279 281 281 278 277
Wind_Speed
23 22 22 21 21 21 20 20 19 17 16 15 12 10 9 8 7 7 6 8 9 11 12 13 13 15 5 3 8 2 4 5 4 3 2 3 3 4 3 3 1 4 4 4 5 11 8
22 23 23 23 23 23 23 22 20 19 18 16 14 12 10 8 8 9 7 7 9 10 11 10 11 10 4 6 1 5 5 2 2 3 4 4 4 4 3 2 3 2 4 9 7 10 10
19 23 24 24 23 24 24 23 22 21 20 18 17 14 12 9 7 8 9 9 10 11 13 9 6 3 3 15 2 5 1 3 1 3 3 3 3 2 3 2 1 2 6 8 8 0 3
19 19 21 24 24 23 24 23 22 22 21 20 18 14 12 9 7 6 9 11 12 14 15 11 6 2 10 3 1 6 4 3 4 4 2 1 2 3 2 1 3 3 1 4 1 7 3
20 18 18 20 21 23 24 22 21 22 23 22 19 16 13 10 7 5 7 12 14 9 5 5 4 3 10 5 3 3 6 4 3 3 2 5 2 1 2 1 3 1 4 3 6 5 5
22 20 18 19 20 22 22 22 22 22 22 20 19 18 15 13 6 2 8 12 5 2 5 4 2 3 5 2 2 2 4 3 3 4 3 2 3 2 2 4 6 4 5 3 6 4 14
21 21 20 20 19 18 20 22 20 19 20 19 19 18 17 12 7 4 5 2 1 1 3 8 4 4 3 6 2 2 2 2 3 3 6 1 4 8 11 11 3 3 5 10 9 12 10
19 20 20 21 19 18 20 20 20 21 21 20 19 18 18 14 8 3 1 2 1 2 8 11 11 9 4 2 4 2 0 2 4 7 5 2 9 10 4 3 5 5 7 8 8 4 9
15 18 18 19 19 19 18 17 16 20 23 22 22 21 20 17 7 3 3 5 3 3 4 7 5 5 5 9 6 5 7 3 5 7 9 8 2 5 6 3 4 4 5 6 12 7 11
17 14 16 20 21 20 20 20 17 21 24 23 23 24 21 18 6 4 3 2 6 3 2 6 4 5 6 5 3 2 1 4 2 9 7 5 1 4 5 4 5 7 10 10 7 7 7
19 18 18 18 20 20 18 16 16 19 24 25 26 26 23 11 7 4 7 2 4 2 4 4 2 3 3 3 4 5 3 1 4 4 4 2 6 3 4 4 4 5 5 8 8 9 11
21 20 21 20 19 20 19 16 17 21 23 28 28 27 24 6 3 2 6 6 2 3 10 2 2 0 4 5 3 4 5 6 2 2 3 0 2 3 3 2 2 3 5 6 8 5 8
24 23 23 22 20 20 21 19 19 19 27 28 28 27 13 7 5 7 5 4 4 6 2 2 2 3 5 2 3 3 3 3 2 2 2 2 3 1 1 3 3 3 4 3 4 6 7
27 24 24 24 22 20 21 19 17 27 28 28 27 25 11 2 4 10 4 2 7 5 4 2 4 4 4 1 2 3 2 3 3 4 3 3 3 5 1 2 1 3 3 4 6 3 4
29 27 26 26 25 22 20 19 30 31 32 31 27 3 3 3 4 1 4 6 7 4 4 9 3 3 2 1 4 2 1 4 5 5 4 5 5 3 6 2 4 3 8 6 12 13 10
31 30 28 27 27 24 21 25 32 35 36 31 8 6 3 5 3 3 1 8 4 2 3 2 5 3 6 5 4 3 4 4 4 4 3 1 4 7 6 3 6 13 1 3 4 4 6
33 31 30 30 28 25 24 33 38 40 36 27 7 5 4 7 3 4 5 5 3 3 3 3 4 4 4 5 5 5 3 1 2 4 2 3 4 2 4 6 4 4 4 7 4 6 5
34 32 32 32 29 28 30 40 42 41 36 8 5 5 9 7 6 3 5 6 5 6 3 3 3 4 5 7 6 5 5 2 3 4 3 2 2 5 8 8 7 8 4 3 3 3 3
33 33 35 34 32 34 42 42 43 40 31 10 6 5 1 1 5 7 3 3 2 4 4 4 3 3 2 5 4 5 2 2 4 5 4 5 3 4 3 4 2 3 4 4 6 7 12
36 37 36 32 35 42 46 45 44 41 27 8 6 7 2 3 2 12 6 5 5 3 3 3 5 4 4 3 1 2 4 1 1 5 7 3 4 6 7 6 5 5 7 11 8 7 7
38 36 36 36 43 46 44 44 42 32 18 7 4 5 8 14 7 5 4 6 7 6 2 3 3 4 6 4 4 4 4 2 2 3 4 6 6 9 14 16 12 8 4 4 7 16 7
35 34 37 43 46 45 46 45 40 25 15 7 6 7 4 13 7 7 6 7 9 5 6 4 4 9 6 5 6 7 6 4 4 3 7 5 3 1 6 11 6 7 7 3 8 8 11
38 41 43 43 43 41 43 41 31 23 8 5 1 3 8 12 8 7 8 9 8 9 1 6 8 6 7 11 9 8 7 6 5 4 5 3 3 2 5 14 10 4 5 4 4 11 2
43 44 42 41 40 40 40 35 27 19 7 3 2 4 6 6 9 9 11 6 12 5 8 5 6 4 2 1 1 1 5 9 10 13 8 3 5 3 3 5 2 5 8 9 12 8 8
38 41 39 40 37 37 32 28 22 17 8 3 2 4 5 5 5 8 13 8 9 4 3 5 3 3 3 1 2 2 3 5 8 9 10 11 5 3 4 2 4 5 1 1 4 5 5
33 34 35 35 33 31 27 21 17 14 10 4 2 1 5 10 2 9 8 9 6 4 3 3 1 2 3 2 2 4 2 2 4 4 5 3 10 6 3 4 5 4 2 2 3 2 4
31 31 31 29 27 26 22 19 17 16 11 5 3 3 6 6 1 2 4 6 5 4 4 3 3 2 1 2 2 1 2 1 2 2 1 2 2 6 3 3 2 3 7 2 4 4 6
27 27 27 26 25 24 21 19 17 15 8 6 1 4 5 5 2 4 3 5 4 2 4 4 3 1 1 2 1 1 1 1 1 2 2 2 1 1 1 2 4 7 2 3 7 9 10
24 24 24 24 24 22 20 17 15 13 11 6 5 2 4 7 4 2 4 3 2 5 6 2 3 3 3 3 2 2 1 1 2 2 2 1 3 2 4 3 4 5 9 6 7 12 9
Wind_Direction
228 225 227 226 229 224 224 227 221 220 217 228 225 229 222 249 268 274 295 319 324 322 324 327 330 330 344 328 258 336 108 120 114 127 168 154 149 154 188 205 188 220 248 244 262 285 259
227 228 228 226 225 224 224 225 225 218 215 214 218 210 214 229 259 278 293 311 311 313 313 318 326 329 311 274 25 48 42 124 186 187 168 166 182 183 169 202 185 179 269 286 270 273 280
262 235 223 226 225 226 225 226 221 219 212 213 211 202 201 219 236 267 289 304 308 308 301 299 302 305 268 247 85 329 308 191 233 213 173 204 178 159 151 268 312 281 287 297 269 152 299
257 251 247 230 223 225 224 226 222 219 214 212 207 196 191 196 212 260 296 308 306 304 294 272 251 169 255 237 255 284 174 245 218 242 257 210 164 111 172 235 25 327 46 289 20 336 67
258 249 248 240 235 229 226 223 223 218 214 208 201 183 183 171 189 253 298 303 305 318 300 173 159 204 261 308 266 264 181 204 160 163 211 96 107 105 112 121 312 22 261 238 308 349 324
266 255 247 246 247 229 225 222 222 220 216 205 195 180 174 165 173 326 323 303 295 9 79 144 137 278 261 245 322 21 191 198 159 121 102 75 61 153 91 187 262 262 268 242 276 311 300
260 260 252 243 239 235 233 226 219 218 211 203 190 175 161 149 106 35 338 10 15 250 240 206 208 262 279 302 288 97 84 56 99 105 194 72 209 216 234 217 255 258 253 268 272 274 291
258 259 255 245 242 234 232 224 222 213 205 196 182 164 151 136 114 96 141 186 311 96 302 236 239 270 271 342 350 243 283 165 168 191 132 146 240 236 242 216 239 250 277 283 286 274 291
289 263 257 252 247 243 234 224 217 207 202 189 173 159 144 123 106 113 176 270 98 76 283 283 203 206 214 175 218 268 168 177 186 183 187 208 192 114 178 196 234 243 259 266 279 301 269
286 281 276 261 251 244 236 229 220 204 200 182 163 149 134 117 119 167 162 121 59 61 281 257 240 248 149 168 98 216 16 177 170 207 173 220 127 158 172 216 234 274 233 261 277 318 303
269 274 274 275 259 245 234 222 217 195 185 166 154 146 139 134 133 182 133 134 148 211 279 73 137 155 128 127 127 8 346 24 157 162 162 184 163 152 201 204 177 279 305 295 294 285 301
261 264 264 262 266 243 233 214 208 192 177 158 151 143 139 126 106 192 134 147 161 183 242 142 52 91 87 20 53 341 36 43 41 62 11 167 340 240 221 192 225 324 312 296 277 252 255
255 256 260 255 255 251 230 217 195 182 158 152 147 145 141 137 178 142 105 108 128 209 144 151 111 95 83 55 49 41 51 38 191 211 200 330 245 142 80 158 87 81 43 304 243 191 246
256 251 256 251 249 246 235 215 180 159 153 142 139 138 140 157 141 134 141 135 206 192 173 133 127 87 112 129 72 47 69 137 85 90 153 228 236 166 151 135 119 313 231 224 267 254 287
257 253 247 247 244 234 235 194 158 152 142 135 125 77 91 183 148 166 122 201 190 216 160 151 99 132 159 139 109 108 188 208 180 170 191 199 249 277 211 213 185 153 211 238 258 272 270
258 252 247 243 239 226 225 179 158 145 138 135 113 109 158 125 153 75 144 210 197 191 138 124 164 167 170 158 146 186 204 189 180 164 185 123 275 258 292 309 224 217 233 163 199 236 245
257 248 245 240 236 219 209 163 147 142 137 127 87 111 151 162 154 154 194 216 190 189 165 127 146 132 150 152 172 185 190 195 169 124 153 150 207 220 311 218 201 160 220 221 254 252 295
249 245 242 240 230 212 185 156 148 144 139 112 108 106 174 173 169 183 184 184 158 145 81 82 99 116 158 166 173 207 230 205 119 132 152 160 186 259 248 286 270 235 213 164 254 195 285
242 241 239 236 232 193 161 154 148 149 148 125 91 101 123 120 168 186 196 171 155 123 147 163 116 129 128 165 185 208 178 85 164 152 177 165 202 291 162 243 204 132 188 264 270 254 241
239 237 234 214 184 163 157 153 151 152 156 96 123 121 160 213 242 170 159 157 115 61 126 112 120 98 124 166 218 151 208 276 129 197 173 130 218 223 255 285 339 295 270 285 264 244 254
231 219 202 174 160 154 151 150 152 152 160 99 123 174 169 184 202 163 138 137 140 154 117 143 107 165 158 160 172 218 203 299 287 248 229 178 243 225 248 266 277 277 292 334 305 239 226
196 174 162 154 149 149 150 149 149 143 129 78 130 146 113 160 143 140 143 179 157 152 148 172 156 161 164 172 195 183 165 195 230 204 188 186 244 249 267 266 212 84 31 14 4 48 91
136 133 134 136 138 143 143 143 137 135 92 103 205 59 119 149 160 149 179 159 170 131 80 153 145 143 194 229 219 223 201 183 211 203 194 185 219 271 323 131 141 103 29 49 72 27 7
116 119 119 124 131 133 135 140 140 141 84 105 174 121 98 152 173 181 151 131 150 143 142 148 127 145 173 60 258 226 245 237 227 232 216 228 176 199 224 210 232 108 107 105 90 49 57
97 106 113 118 120 126 134 140 151 162 130 126 137 118 120 116 144 129 140 121 96 97 95 138 170 155 132 108 211 219 186 178 219 227 209 209 188 225 228 119 101 169 130 205 1 65 30
99 104 112 118 126 134 141 143 147 157 146 90 86 242 103 120 202 128 112 136 127 128 114 101 91 113 99 113 163 212 172 223 135 135 182 166 208 203 168 176 201 89 22 338 299 96 34
100 104 109 114 122 129 131 138 142 150 160 121 73 21 88 102 4 108 114 135 116 108 115 133 145 116 68 140 163 206 147 252 163 82 335 19 46 205 158 115 131 30 317 262 241 114 84
97 99 102 104 107 110 113 116 122 125 117 84 97 0 109 87 48 41 108 127 101 119 147 152 124 65 98 127 179 139 117 59 118 64 18 53 303 71 300 145 178 357 196 259 105 104 110
96 95 95 96 96 98 99 99 98 98 93 97 80 345 29 79 104 48 64 48 85 156 128 110 116 139 166 120 149 125 98 120 139 142 33 148 10 115 3 48 52 17 69 93 120 129 121